Location: St. Louis
(38.6270°N, 90.1994°W)
Time: 02:05:17
(UTC-05:00)

ISS - Pass Details

Date: 30 May 2018
Orbit: 411 x 421 km, 51.6° (Epoch: 15 October)

Event Time Altitude Azimuth Distance (km) Brightness Sun altitude
Rises 23:06:08 0° 316° (NW) 2,344 1.3 -24.0°
Reaches altitude 10° 23:08:25 10° 328° (NNW) 1,480 0.1 -24.2°
Enters shadow 23:10:55 27° 16° (NNE) 836 -1.8 -24.4°
